sat.trackr.live / text

‹ back to catalog

STARLINK-4164

NORAD 53282 · 2022-086AS

PAYLOAD ACTIVE UNKNOWN

§ Identity

Operator
Country
US
Launch date
2022-07-24
Launch site
AFETR
Launch vehicle
Mass (kg)
RCS (m²)

Purposes: comms

External: N2YO · Heavens-Above · Gunter

§ Orbital elements

Epoch: 2026-09-19T19:40:48.501984Z

Period
93.90 min
Inclination
53.1613°
Eccentricity
0.0001043
Mean motion
15.33550959 rev/d
Perigee alt
464.5 km
Apogee alt
465.9 km
Semi-major
6,843.4 km
B*
4.6596e-5
RAAN
17.1369°
Arg perigee
92.5380°
Mean anomaly
267.5742°
Rev number
23,071

§ Raw data

STARLINK-41641 53282U 22086AS  26262.82000581  .00001160  00000+0  46596-4 0  99912 53282  53.1613  17.1369 0001043  92.5380 267.5742 15.33550959230714

JSON: /api/v1/satellites/53282 · /tle

For live sub-satellite position, see the globe view (requires WebGL).

§ Visibility from observer

Set your observer location to see the next 7 days of passes ≥ 10°. The values pass through the URL so the page stays shareable.

No JS? Fill the form by hand. The geolocation button needs JavaScript.